Location: Champseau
(45.8333°N, 1.7667°E)
Time: 06:36:25
(UTC+00:00)

N. Korean satellite - Visible Passes

Search period start: 18 September 2021 00:00
Search period end: 28 September 2021 00:00
Orbit: 448 x 499 km, 97.3° (Epoch: 17 September)

Date Brightness Start Highest point End Pass type
(mag) Time Alt. Az. Time Alt. Az. Time Alt. Az.
19 Sep 8.4 04:46:24 10° NNE 04:49:38 35° E 04:52:54 10° SSE visible
20 Sep 9.6 04:19:24 10° NE 04:21:45 17° E 04:24:07 10° SE visible
22 Sep 7.7 04:56:15 10° NNE 04:59:39 47° E 05:03:07 10° S visible
23 Sep 9.3 04:28:58 10° NE 04:31:48 22° E 04:34:38 10° SSE visible
24 Sep 10.1 04:02:57 10° ENE 04:03:48 11° E 04:04:40 10° ESE visible
25 Sep 7.1 05:06:05 10° NNE 05:09:37 65° E 05:13:11 10° S visible
26 Sep 8.8 04:38:38 10° NE 04:41:46 29° E 04:44:56 10° SSE visible
27 Sep 9.8 04:11:50 10° ENE 04:13:49 14° E 04:15:48 10° SE visible
